Regional Weather Roundup
Issued by NWS Green Bay, WI

Home | Current Version | Previous Version | Graphics & Text | Print | Product List | Glossary Off
Versions: 1 2 3 4 5 6 7 8 9 10 11 12 13 14 15 16 17 18 19 20 21 22 23 24 25 26 27 28 29 30 31 32 33 34 35 36 37 38 39 40 41 42 43 44 45 46 47 48 49 50

000
ASUS43 KGRB 011111
RWRGRB

NORTH-CENTRAL AND NORTHEAST WISCONSIN REGIONAL WEATHER ROUNDUP
NATIONAL WEATHER SERVICE GREEN BAY WI
600 AM CDT SAT AUG 01 2015

WIZ005-009-010>012-018-019-011200-
NORTH CENTRAL WISCONSIN

CITY           SKY/WX    TMP DP  RH WIND       PRES   REMARKS
IRONWOOD       CLEAR     54  52  94 W7          N/A
MANITOWISH WTR CLEAR     51  50  99 W5        29.93S
ARBOR VITAE    CLEAR     57  53  88 CALM      29.93S
EAGLE RIVER    CLEAR     52  52 100 W8        29.92R
LAND O LAKES   CLEAR     54  52  94 W5        29.93R
RHINELANDER    CLEAR     50  48  93 W8        29.94S
PHILLIPS       CLEAR     51  50  95 CALM      29.95S
ANTIGO         CLEAR     51  50  96 W5        29.95R
TOMAHAWK       CLEAR     50  48  93 CALM      29.94F
MERRILL        NOT AVBL
$$

WIZ013-073-011200-
NORTHEAST WISCONSIN

CITY           SKY/WX    TMP DP  RH WIND       PRES   REMARKS
IRON MOUNTAIN  CLEAR     57  54  89 W5        29.88R
MARINETTE      CLEAR     57  52  82 W3        29.87S
OCONTO         CLEAR     56  56 100 W5        29.89S
$$

WIZ017-030-035>037-045-011200-
CENTRAL WISCONSIN

CITY           SKY/WX    TMP DP  RH WIND       PRES   REMARKS
MEDFORD        CLEAR     51  49  94 CALM      29.96S
WAUSAU         CLEAR     58  51  78 W8        29.94S
MOSINEE        CLEAR     55  52  88 W7        29.96S
MARSHFIELD     CLOUDY    57  50  77 W6        29.96F
WISC RAPIDS    MOCLDY    58  51  78 NW6       29.97S
STEVENS POINT  CLEAR     58  51  78 W5        29.96S
WAUPACA          N/A     60  53  76 W5        29.94S
SHAWANO        CLEAR     59  53  82 W6        29.92S
CLINTONVILLE   CLEAR     57  52  82 W6        29.92S
$$

WIZ038-039-048-051-011200-
FOX VALLEY

CITY           SKY/WX    TMP DP  RH WIND       PRES   REMARKS
NWS GREEN BAY  CLEAR     58  53  84 W8        29.92S
APPLETON       PTCLDY    57  50  77 W9        29.94S
OSHKOSH        CLEAR     60  51  72 W6        29.93F
FOND DU LAC    CLEAR     59  52  77 SW7       29.94F
$$

WIZ022-050-052-011200-
EAST CENTRAL WISCONSIN

CITY           SKY/WX    TMP DP  RH WIND       PRES   REMARKS
STURGEON BAY   CLEAR     59  54  82 W5        29.91S
MANITOWOC      CLEAR     62  55  77 MISG      29.92S
SHEBOYGAN      CLEAR     61  52  72 W8        29.93S
$$

LMZ563-521-522-541>543-011200-
LAKESHORE

STATION/POSITION TIME  TEMP    WIND        PRES    VSBY  WAVE
                       AIR SEA DIR/SP/G                  HT/PER
                 (UTC) (F)     (DEG/KT/KT) (MB)    (MI)  (FT/S)
SHEBOYGAN LKSHOR 1100   65     270/ 10/ 12 1013.3F
KEWAUNEE LKSHORE 1000   61     280/  4/  5 1011.9R
ALGOMA MARINA    1012           CALM  /  3   N/A
NORTHPORT PIER   1000   67     280/  5/ 12 1011.2S
N MID LAKE BUOY  1050   66 68  280/ 12/ 14 1010.5R         2/ 4
S GREEN BAY BUOY 1100   62 68  270/ 12/ 14 1013.5
SISTER BAY LKSHO 1029   66     300/ 15/ 16   N/A
CHAMBERS ISLAND  1000   64     240/  3/  9 1011.5S
MENOMINEE LKSHOR 1000   62     250/  9/ 12 1012.5S
$$



USA.gov is the U.S. government's official web portal to all federal, state and local government web resources and services.